Regional Weather Roundup
Issued by NWS Memphis, TN

Home | Current Version | Previous Version | Text Only | Print | Product List | Glossary On
Versions: 1 2 3 4 5 6 7 8 9 10 11 12 13 14 15 16 17 18 19 20 21 22 23 24 25 26 27 28 29 30 31 32 33 34 35 36 37 38 39 40 41 42 43 44 45 46 47 48 49 50
000
ASUS44 KMEG 260800
RWRMEG
MEMPHIS CWA HOURLY WEATHER ROUNDUP
NATIONAL WEATHER SERVICE MEMPHIS TN
200 AM CST WED NOV 26 2014

...WEST TENNESSEE...

CITY           SKY/WX    TMP DP  RH WIND       PRES   REMARKS
MEMPHIS INTL   CLEAR     32  26  78 CALM      30.16R
NWS MEMPHIS      N/A     29 N/A N/A MISG        N/A
JACKSON        CLEAR     25  22  88 CALM      30.15F
LEXINGTON      CLEAR     25  23  93 CALM      30.13R
SAVANNAH       CLEAR     25  25 100 CALM      30.16R
DYERSBURG      CLEAR     27  16  63 CALM      30.17R
UNION CITY     CLEAR     25  25 100 CALM      30.15R
PARIS          CLEAR     25  21  86 CALM      30.14S


...EASTERN ARKANSAS...

CITY           SKY/WX    TMP DP  RH WIND       PRES   REMARKS
JONESBORO      CLEAR     30  26  85 CALM      30.15S
WEST MEMPHIS   CLEAR     29  29 100 CALM      30.15S FOG
BATESVILLE     CLEAR     27  21  80 CALM      30.13F
WALNUT RIDGE   CLEAR     30  25  80 CALM      30.13F
BLYTHEVILLE    CLEAR     37  29  72 S3        30.16F
SEARCY         CLEAR     27  26  96 CALM      30.16S
STUTTGART      MOCLDY    37  30  75 SE6       30.15S WCI  33
PINE BLUFF     MOCLDY    35  31  85 CALM      30.15S
MONTICELLO     PTCLDY    32  29  88 CALM      30.14F


...NORTH MISSISSIPPI...

CITY           SKY/WX    TMP DP  RH WIND       PRES   REMARKS
TUPELO         CLEAR     30  26  85 CALM      30.16S
OLIVE BRANCH   CLEAR     28  30 100 CALM      30.16S
TUNICA         CLEAR     32  30  93 CALM      30.17F
GREENWOOD      CLEAR     28  26  92 CALM      30.18F
COLUMBUS       CLEAR     29  25  86 CALM      30.17R
STARKVILLE       N/A     28  28 100 CALM      30.17S
GOLDEN TRIANGL CLEAR     34  27  75 NW3       30.15S


...SOUTHEAST MISSOURI...

CITY           SKY/WX    TMP DP  RH WIND       PRES   REMARKS
WEST PLAINS    PTCLDY    25  20  81 SE3       30.08F
POPLAR BLUFF   CLEAR     25  21  85 CALM      30.13F
CAPE GIRARDEAU CLEAR     24  22  91 E6        30.16S WCI  17


...NORTHWEST ALABAMA...

CITY           SKY/WX    TMP DP  RH WIND       PRES   REMARKS
MUSCLE SHOALS  CLEAR     33  25  72 CALM      30.15S


...MIDDLE TENNESSEE...

CITY           SKY/WX    TMP DP  RH WIND       PRES   REMARKS
NASHVILLE      CLEAR     33  27  78 CALM      30.12F
CLARKSVILLE    CLEAR     29  26  89 N3        30.14S


...WESTERN KENTUCKY...

CITY           SKY/WX    TMP DP  RH WIND       PRES   REMARKS
PADUCAH        CLEAR     24  21  88 CALM      30.16R
FORT CAMPBELL  CLEAR     29  28  96 N1        30.14S


...CENTRAL ARKANSAS...

CITY           SKY/WX    TMP DP  RH WIND       PRES   REMARKS
LITTLE ROCK    PTCLDY    33  28  81 CALM      30.15S


SKY/WX REPORTED AS FAIR MEANS FEW OR NO CLOUDS BELOW
12 THOUSAND FEET.




USA.gov is the U.S. government's official web portal to all federal, state and local government web resources and services.